CZ-4 DEB, 26152

Orbit data source: Space-Track

CZ-4 DEB, 26152 is space debris in SSO originally from a launch on Thu, 14 Oct 1999 UTC launched from the Taiyaun Space Center, China (TSC). Debris objects in space refer to the collection of defunct objects orbiting the Earth. Examples of debris include non-operational satellites, rocket bodies, and fragments generated from explosions, collisions, or faulty payload assembly.

Loading next visibility...
Identifier
26152, 1999-057AN
Orbit
SSO
Country
Flag of CNCN / PRC
Related business
Manufacturer
Unknown
Mission
Spacecraft
Bus & Motor
Unknown
Mass
Unknown
Launch date (UTC)
1999-10-14 (26 years ago)
Launch vehicle
Unknown
Launch site
Taiyaun Space Center, China (TSC)
Object type
Payload
Rocket body
Debris
Shape & HBR
Unknown shape, 0.1 m
Radar Cross Section
Small (<0.1 m²)

Expand to show TLE details & history
Last TLE update: 7 hours ago

TLE from 7 hours ago
0 CZ-4 DEB
1 26152U 99057AN  25354.53727221  .00000287  00000-0  27844-3 0  9999
2 26152  99.1429  14.8475 0519292  35.6794 114.0366 13.38337220254209
Epoch: 2025-12-20T12:53Z
TLE epoch observation values (Epoch: 2025-12-20T12:53:40.318Z)
Latitude
24.68341°
Longitude
-83.71233°
Altitude
1,293.217 km
Speed
7.127 km/s
True Right ascension
13h 16m 16s
True Declination
24° 33' 44"
Sunlit
Object was in daylight at epoch
Visualization orbit readout
Latitude
Unknown
Longitude
Unknown
Altitude
Unknown
Speed
Unknown
Apparent Right ascension
Unknown
Apparent Declination
Unknown
Sunlit
N/A
Visualization observer readout
Local Sidereal Time
19:21:33
Azimuth
Unknown
Elevation
Unknown
Doppler factor
Unknown
Orbital elements
Apogee altitude
1,501.754 km
Perigee altitude
723.762 km
Semi-major axis
7,490.895 km
Eccentricity
0.05193
Inclination
99.1429°
RAAN
14.8475°
Arg. of periapsis
35.6794°
True anomaly
119.32363°
Mean anomaly
114.0366°
Eccentric anomaly
116.69479°
Mean motion
3.34767 °/min
Orbital period
107.54 mins
BSTAR
0.00027844
Loading maneuver chart data...
Computing Atmospheric mass density...

Documentation

Showing up to 5 results
|